Flag for Switzerland Weather past 2 weeks in Montreux, Vaud, Switzerland

Now
49 °F

Cool.


Feels Like: 47 °F
Forecast: 32 / 56 °F
Wind: 6 mph from Northwest

Location: Aigle

Current Time: Oct 24, 2014 at 1:25:12 PM

Latest Report: Oct 24, 2014 at 12:00 PM


Visibility: N/A

Pressure: 30.19 "Hg

Humidity: 65%

Dew point: 38 °F

Location of MontreuxLocation

Historic Weather in Montreux — Graph

°F

Montreux temperature yesterday

Maximum temperature yesterday: 54 °F (at 4:00 PM)
Minimum temperature yesterday: 37 °F (at 8:00 AM)
Average temperature yesterday: 44 °F

Past Weeks' High & Low Weather Summary

 TemperatureHumidityPressure
High76 °F (Oct 9, 12:00 PM)98% (Oct 11, 6:00 AM)30.39 "Hg (Oct 11, 6:00 AM)
Low34 °F (Oct 24, 7:00 AM)38% (Oct 9, 12:00 PM)29.76 "Hg (Oct 13, 5:00 AM)
Average57 °F83%30.02 "Hg
* Reported Oct 9 12:00 Noon — Oct 24 12:00 Noon, Montreux, Weather by CustomWeather, © 2014

Note: Actual official high and low records may vary slightly from our data, if they occured in-between our weather recording intervals... More about our weather records

Advertising

Montreux weather history for previous 24 hours

 ConditionsComfort  
Time TempWeatherWind HumidityBarometerVisibility
12:00 PM
Oct 24
49 °FCool.6 mph65%30.19 "HgN/A
11:00 AM46 °FSunny.1 mph75%30.20 "Hg25 mi
10:00 AM44 °FQuite cool.6 mph78%30.21 "HgN/A
9:00 AM36 °FChilly.1 mph90%30.24 "HgN/A
8:00 AM36 °FChilly.2 mph89%30.22 "HgN/A
7:00 AM34 °FChilly.1 mph93%30.24 "HgN/A
6:00 AM36 °FChilly.2 mph91%30.23 "HgN/A
5:00 AM36 °FClear.3 mph92%30.22 "Hg19 mi
4:00 AM37 °FChilly.1 mph94%30.23 "HgN/A
3:00 AM36 °FChilly.3 mph93%30.24 "HgN/A
2:00 AM37 °FChilly.1 mph93%30.24 "HgN/A
1:00 AM40 °FChilly.5 mph87%30.24 "HgN/A
12:00 AM37 °FChilly.1 mph94%30.25 "HgN/A
11:00 PM
Oct 23
40 °FChilly.6 mph88%30.24 "HgN/A
10:00 PM42 °FQuite cool.6 mph85%30.24 "HgN/A
9:00 PM43 °FQuite cool.3 mph80%30.22 "HgN/A
8:00 PM45 °FClear.5 mph77%30.21 "Hg16 mi
7:00 PM44 °FQuite cool.2 mph86%30.22 "HgN/A
6:00 PM47 °FCool.1 mph76%30.20 "HgN/A
5:00 PM53 °FCool.3 mph51%30.20 "HgN/A
4:00 PM54 °FCool.6 mph54%30.21 "HgN/A
3:00 PM54 °FCool.3 mph52%30.23 "HgN/A
2:00 PM53 °FPassing clouds.8 mph57%30.26 "Hg22 mi
1:00 PM50 °FCool.3 mph65%30.29 "HgN/A
Weather by CustomWeather, © 2014

See weather overviewHow to use our weather pages